EW2492 Weather Reports


Display with metric or nautical units.
time (UTC)temp
F
wind
direction
speed
MPH
gust
MPH
rain 1hr
in
rain 24hr
in
rain mn
in
humidity
%
barometer
mb
20221208231723 39 355 2.0 8.0 0.00 0.05 0.00 45 1018.4
20221208231229 39 308 2.0 8.0 0.00 0.05 0.00 44 1018.3
20221208230723 40 314 2.0 7.0 0.00 0.05 0.00 42 1018.2
20221208230226 40 279 5.0 10.0 0.00 0.05 0.00 41 1018.1
20221208225723 40 295 6.0 13.0 0.00 0.05 0.00 41 1018.0
20221208225226 41 293 8.0 11.0 0.00 0.05 0.00 42 1018.0
20221208224722 41 313 1.0 11.0 0.00 0.05 0.00 42 1017.9
20221208224222 41 277 3.0 9.0 0.00 0.05 0.00 42 1017.7
20221208223722 41 324 6.0 11.0 0.00 0.05 0.00 40 1017.7
20221208223222 41 323 6.0 8.0 0.00 0.05 0.00 40 1017.6
20221208222728 41 318 4.0 9.0 0.00 0.05 0.00 40 1017.6
20221208222222 41 289 2.0 10.0 0.00 0.05 0.00 39 1017.6
20221208221722 41 341 6.0 9.0 0.00 0.05 0.00 40 1017.6
20221208221225 41 276 7.0 11.0 0.00 0.05 0.00 41 1017.5
20221208220722 41 307 1.0 13.0 0.00 0.05 0.00 41 1017.4
20221208220228 41 340 9.0 11.0 0.00 0.05 0.00 41 1017.4
20221208215722 41 327 4.0 12.0 0.00 0.05 0.00 40 1017.4
20221208215225 42 323 8.0 12.0 0.00 0.05 0.00 41 1017.3
20221208214725 41 320 8.0 9.0 0.00 0.05 0.00 42 1017.2
20221208214221 42 296 6.0 12.0 0.00 0.05 0.00 43 1017.3
20221208213721 42 278 5.0 11.0 0.00 0.05 0.00 43 1017.2
20221208213221 41 326 5.0 11.0 0.00 0.05 0.00 42 1017.2
20221208212721 41 307 4.0 10.0 0.00 0.05 0.00 43 1017.3
20221208212221 41 315 3.0 11.0 0.00 0.05 0.00 46 1017.2
20221208211724 41 261 5.0 9.0 0.00 0.05 0.00 46 1017.2
20221208211221 41 287 2.0 13.0 0.00 0.05 0.00 46 1017.3
20221208210727 41 344 10.0 10.0 0.00 0.05 0.00 46 1017.3
20221208210220 41 291 5.0 9.0 0.00 0.05 0.00 45 1017.2
20221208205723 41 308 10.0 10.0 0.00 0.05 0.00 47 1017.2
20221208205220 41 285 3.0 12.0 0.00 0.05 0.00 44 1017.2
20221208204723 41 249 8.0 10.0 0.00 0.05 0.00 43 1017.2
20221208204223 41 278 4.0 10.0 0.00 0.05 0.00 43 1017.1
20221208203723 41 309 8.0 11.0 0.00 0.05 0.00 42 1017.1
20221208203220 41 347 8.0 10.0 0.00 0.05 0.00 49 1017.0
20221208202720 41 294 3.0 9.0 0.00 0.05 0.00 49 1016.9
20221208202229 41 290 1.0 11.0 0.00 0.05 0.00 49 1017.0
20221208201726 41 330 3.0 9.0 0.00 0.05 0.00 47 1017.0
20221208201228 41 289 5.0 12.0 0.00 0.05 0.00 48 1017.0
20221208200723 40 234 5.0 9.0 0.00 0.05 0.00 52 1017.1
20221208200219 40 301 6.0 11.0 0.00 0.05 0.00 49 1017.0
20221208195719 40 296 7.0 10.0 0.00 0.05 0.00 50 1017.1
20221208195222 41 331 6.0 11.0 0.00 0.05 0.00 49 1017.1
20221208194725 40 330 6.0 10.0 0.00 0.05 0.00 51 1017.2
20221208194225 40 313 6.0 11.0 0.00 0.05 0.00 54 1017.2
20221208193719 40 327 2.0 9.0 0.00 0.05 0.00 54 1017.4
20221208193219 40 248 8.0 8.0 0.00 0.05 0.00 52 1017.4
20221208192720 40 296 5.0 12.0 0.00 0.05 0.00 53 1017.4
20221208192224 39 327 5.0 14.0 0.00 0.05 0.00 53 1017.4
20221208191719 40 341 2.0 10.0 0.00 0.05 0.00 51 1017.6
20221208191221 39 306 3.0 8.0 0.00 0.05 0.00 53 1017.7
20221208190718 39 302 6.0 15.0 0.00 0.05 0.00 55 1017.8
20221208190218 39 280 9.0 14.0 0.00 0.05 0.00 52 1017.6
20221208185724 39 257 3.0 15.0 0.00 0.05 0.00 49 1017.8
20221208185218 39 300 7.0 9.0 0.00 0.05 0.00 54 1017.7
20221208184718 39 298 6.0 18.0 0.00 0.05 0.00 53 1017.8
20221208184218 39 304 4.0 11.0 0.00 0.05 0.00 54 1017.8
20221208183718 39 299 7.0 11.0 0.00 0.05 0.00 54 1017.8
20221208183218 39 279 9.0 11.0 0.00 0.05 0.00 55 1017.8
20221208182717 39 348 2.0 11.0 0.00 0.05 0.00 57 1017.8
20221208182217 39 300 8.0 11.0 0.00 0.05 0.00 59 1017.9
20221208181717 39 298 5.0 14.0 0.00 0.05 0.00 59 1017.8
20221208181217 38 9 6.0 11.0 0.00 0.05 0.00 59 1017.8
20221208180719 38 296 9.0 11.0 0.00 0.05 0.00 59 1017.9
20221208180220 38 309 4.0 14.0 0.00 0.05 0.00 59 1017.8
20221208175720 39 355 4.0 11.0 0.00 0.05 0.00 60 1018.0
20221208175217 39 329 5.0 10.0 0.00 0.05 0.00 61 1018.1
20221208174723 38 325 2.0 14.0 0.00 0.05 0.00 60 1018.2
20221208174216 38 277 8.0 11.0 0.00 0.05 0.00 62 1018.2
20221208173719 38 312 5.0 12.0 0.00 0.05 0.00 62 1018.2
20221208173219 38 263 5.0 10.0 0.00 0.05 0.00 64 1018.3
20221208172719 38 325 3.0 10.0 0.00 0.05 0.00 64 1018.2
20221208172216 38 309 4.0 10.0 0.00 0.05 0.00 65 1018.2
20221208171716 37 289 1.0 13.0 0.00 0.05 0.00 65 1018.2
20221208171216 37 314 4.0 15.0 0.00 0.05 0.00 64 1018.1
20221208170722 37 323 6.0 10.0 0.00 0.05 0.00 66 1018.2
20221208170222 37 273 5.0 12.0 0.00 0.05 0.00 65 1018.1
20221208165719 37 302 7.0 10.0 0.00 0.05 0.00 66 1018.0
20221208165216 37 328 5.0 10.0 0.00 0.05 0.00 66 1018.1
20221208164715 37 328 4.0 10.0 0.00 0.05 0.00 65 1018.1
20221208164215 37 310 7.0 7.0 0.00 0.05 0.00 65 1018.0
20221208163718 37 338 2.0 7.0 0.00 0.05 0.00 66 1017.9
20221208163221 37 333 5.0 9.0 0.00 0.05 0.00 65 1017.9
20221208162718 36 312 3.0 7.0 0.00 0.05 0.00 66 1017.8
20221208162215 36 316 3.0 8.0 0.00 0.05 0.00 67 1017.8
20221208161718 36 350 3.0 11.0 0.00 0.05 0.00 67 1017.7
20221208161215 36 321 6.0 9.0 0.00 0.05 0.00 67 1017.7
20221208160715 35 355 7.0 10.0 0.00 0.05 0.00 66 1017.7
20221208160215 35 286 10.0 14.0 0.00 0.05 0.00 67 1017.8
20221208155714 35 329 4.0 11.0 0.00 0.05 0.00 68 1017.6
20221208155214 35 336 2.0 11.0 0.00 0.05 0.00 68 1017.6
20221208154720 35 306 4.0 12.0 0.00 0.05 0.00 69 1017.5
20221208154214 34 0 6.0 11.0 0.00 0.05 0.00 71 1017.5
20221208153720 34 309 7.0 11.0 0.00 0.05 0.00 71 1017.5
20221208153214 34 315 5.0 8.0 0.00 0.05 0.00 72 1017.6
20221208152720 34 329 3.0 10.0 0.00 0.05 0.00 73 1017.5
20221208152217 34 327 4.0 8.0 0.00 0.05 0.00 74 1017.4
20221208151714 33 299 0.0 7.0 0.00 0.05 0.00 75 1017.3
20221208151213 33 313 1.0 10.0 0.00 0.05 0.00 75 1017.4
20221208150720 33 336 2.0 8.0 0.00 0.05 0.00 77 1017.4
20221208150216 32 350 0.0 7.0 0.00 0.05 0.00 78 1017.5
20221208145722 32 346 3.0 10.0 0.00 0.05 0.00 78 1017.5
20221208145213 32 355 3.0 8.0 0.00 0.05 0.00 79 1017.5
20221208144716 31 348 6.0 7.0 0.00 0.05 0.00 80 1017.3
20221208144216 31 315 1.0 6.0 0.00 0.05 0.00 81 1017.3
20221208143713 31 5 5.0 7.0 0.00 0.05 0.00 82 1017.3
20221208143213 31 9 3.0 5.0 0.00 0.05 0.00 83 1017.3
20221208142713 31 9 0.0 2.0 0.00 0.05 0.00 83 1017.2
20221208142213 31 9 1.0 5.0 0.00 0.05 0.00 83 1017.1
20221208141713 31 355 0.0 5.0 0.00 0.05 0.00 83 1017.2
20221208141212 31 355 0.0 2.0 0.00 0.05 0.00 83 1017.3
20221208140715 31 355 1.0 5.0 0.00 0.05 0.00 84 1017.3
20221208140212 31 355 3.0 6.0 0.00 0.05 0.00 84 1017.3
20221208135718 31 350 2.0 5.0 0.00 0.05 0.00 84 1017.4
20221208135212 32 5 0.0 6.0 0.00 0.05 0.00 85 1017.3
20221208134712 32 9 3.0 6.0 0.00 0.05 0.00 86 1017.3
20221208134212 32 355 1.0 4.0 0.00 0.05 0.00 86 1017.3
20221208133715 32 355 2.0 5.0 0.00 0.05 0.00 87 1017.3
20221208133215 32 0 2.0 7.0 0.00 0.05 0.00 87 1017.3
20221208132215 33 336 3.0 7.0 0.00 0.05 0.00 87 1017.1
20221208131718 33 334 3.0 6.0 0.00 0.05 0.00 87 1017.0
20221208131214 33 338 2.0 8.0 0.00 0.05 0.00 86 1016.9
20221208130714 33 336 4.0 9.0 0.00 0.05 0.00 85 1016.9
20221208130211 34 290 2.0 12.0 0.00 0.05 0.00 84 1016.7
20221208125714 34 285 6.0 12.0 0.00 0.05 0.00 83 1016.6
20221208125211 34 315 7.0 11.0 0.00 0.05 0.00 82 1016.6
20221208124717 34 346 3.0 10.0 0.00 0.05 0.00 82 1016.9
20221208124211 34 318 8.0 11.0 0.00 0.05 0.00 82 1016.6
20221208123713 35 298 4.0 10.0 0.00 0.05 0.00 82 1016.8
20221208123211 35 304 7.0 14.0 0.00 0.05 0.00 81 1016.8
20221208122716 35 308 6.0 9.0 0.00 0.05 0.00 81 1016.6
20221208122213 35 319 3.0 12.0 0.00 0.05 0.00 80 1016.6
20221208121713 35 329 6.0 15.0 0.00 0.05 0.00 80 1016.5
20221208121210 35 264 10.0 10.0 0.00 0.05 0.00 81 1016.5
20221208120713 35 336 6.0 12.0 0.00 0.05 0.00 81 1016.6
20221208120210 35 274 6.0 14.0 0.00 0.05 0.00 81 1016.5
20221208115710 35 300 1.0 10.0 0.00 0.05 0.00 82 1016.6
20221208115210 35 301 6.0 12.0 0.00 0.05 0.00 82 1016.6
20221208114713 35 225 8.0 11.0 0.00 0.05 0.00 83 1016.7
20221208114213 35 342 4.0 14.0 0.00 0.05 0.00 83 1016.8
20221208113711 35 319 0.0 10.0 0.00 0.05 0.00 84 1016.9
20221208113211 35 320 3.0 8.0 0.00 0.05 0.00 84 1017.0
20221208112709 35 306 4.0 9.0 0.00 0.05 0.00 84 1017.0
20221208112209 35 311 3.0 10.0 0.00 0.05 0.00 84 1017.1
20221208111709 36 340 5.0 8.0 0.00 0.05 0.00 84 1017.2
20221208111209 36 311 5.0 7.0 0.00 0.05 0.00 84 1017.3
20221208110709 36 313 2.0 8.0 0.00 0.05 0.00 84 1017.4
20221208110209 36 329 0.0 7.0 0.00 0.05 0.00 84 1017.5
20221208105709 36 325 2.0 10.0 0.00 0.05 0.00 84 1017.5
20221208105208 36 314 6.0 10.0 0.00 0.05 0.00 84 1017.5
20221208104708 36 269 6.0 9.0 0.00 0.05 0.00 84 1017.6
20221208104217 36 316 4.0 10.0 0.00 0.05 0.00 84 1017.7
20221208103708 36 296 1.0 13.0 0.00 0.05 0.00 84 1017.7
20221208103211 36 306 6.0 8.0 0.00 0.05 0.00 85 1017.8
20221208102711 36 311 4.0 8.0 0.00 0.05 0.00 85 1017.8
20221208102211 36 259 5.0 8.0 0.00 0.05 0.00 85 1017.8
20221208101711 36 301 7.0 9.0 0.00 0.05 0.00 85 1017.9
20221208100216 36 307 3.0 10.0 0.00 0.05 0.00 85 1018.0
20221208095716 36 338 8.0 11.0 0.00 0.05 0.00 85 1017.9
20221208095217 36 332 5.0 13.0 0.00 0.05 0.00 85 1017.8
20221208094716 36 287 7.0 12.0 0.00 0.05 0.00 85 1017.9
20221208094219 36 282 8.0 9.0 0.00 0.05 0.00 85 1018.0
20221208093719 36 313 4.0 10.0 0.00 0.05 0.00 85 1018.1
20221208093216 36 305 3.0 13.0 0.00 0.05 0.00 84 1018.1
20221208092722 36 234 4.0 11.0 0.00 0.05 0.00 84 1018.2
20221208092218 36 315 7.0 12.0 0.00 0.05 0.00 84 1018.1
20221208091724 37 290 4.0 9.0 0.00 0.05 0.00 83 1018.2
20221208091216 37 325 2.0 10.0 0.00 0.05 0.00 83 1018.2
20221208090715 37 310 1.0 12.0 0.00 0.05 0.00 83 1018.2
20221208090218 37 338 6.0 10.0 0.00 0.05 0.00 82 1018.4
20221208085718 37 313 4.0 9.0 0.00 0.05 0.00 82 1018.4
20221208085215 37 259 6.0 10.0 0.00 0.05 0.00 82 1018.4
20221208084718 37 306 4.0 14.0 0.00 0.05 0.00 82 1018.4
20221208084215 37 292 8.0 14.0 0.00 0.05 0.00 82 1018.5
20221208083718 37 309 4.0 12.0 0.00 0.05 0.00 82 1018.6
20221208083215 37 246 6.0 11.0 0.00 0.05 0.00 82 1018.6
20221208082714 37 343 2.0 8.0 0.00 0.05 0.00 81 1018.7
20221208082217 37 300 4.0 10.0 0.00 0.05 0.00 82 1018.8
20221208081714 37 299 1.0 8.0 0.00 0.05 0.00 82 1018.9
20221208081217 38 336 3.0 7.0 0.00 0.05 0.00 82 1019.0
20221208080714 38 309 0.0 8.0 0.00 0.05 0.00 82 1019.0
20221208080220 38 305 2.0 7.0 0.00 0.05 0.00 82 1019.1
20221208075717 38 319 2.0 6.0 0.00 0.05 0.00 82 1019.2
20221208075220 38 303 4.0 7.0 0.00 0.05 0.00 82 1019.4
20221208074717 38 329 4.0 11.0 0.00 0.05 0.00 83 1019.5
20221208074220 38 292 0.0 11.0 0.00 0.05 0.00 84 1019.7
20221208073714 38 305 1.0 10.0 0.00 0.05 0.00 86 1019.8
20221208073213 37 242 2.0 7.0 0.00 0.05 0.00 88 1019.9
20221208072719 37 320 1.0 6.0 0.00 0.05 0.00 89 1020.0
20221208072213 37 311 2.0 5.0 0.00 0.05 0.00 90 1020.0
20221208071713 37 313 0.0 5.0 0.00 0.05 0.00 90 1020.2
20221208071216 37 313 2.0 3.0 0.00 0.05 0.00 90 1020.2
20221208070719 37 313 0.0 3.0 0.00 0.05 0.00 90 1020.3
20221208070216 37 313 1.0 5.0 0.00 0.05 0.00 90 1020.5
20221208065716 37 317 3.0 5.0 0.00 0.05 0.00 90 1020.4
20221208065219 37 327 2.0 6.0 0.00 0.05 0.00 91 1020.4
20221208064713 37 287 0.0 5.0 0.00 0.05 0.00 91 1020.7
20221208064216 37 281 2.0 7.0 0.00 0.05 0.00 92 1020.7
20221208063718 37 318 1.0 7.0 0.00 0.05 0.00 93 1020.6
20221208063212 37 320 3.0 5.0 0.00 0.05 0.00 94 1020.6
20221208062712 36 252 0.0 7.0 0.00 0.05 0.00 94 1020.8
20221208062215 36 317 1.0 6.0 0.00 0.05 0.00 94 1020.7
20221208061714 36 279 1.0 6.0 0.00 0.05 0.00 95 1020.8
20221208061215 36 292 0.0 6.0 0.00 0.05 0.00 95 1020.7
20221208060715 35 325 2.0 3.0 0.00 0.05 0.00 95 1020.8
20221208060214 35 319 0.0 4.0 0.00 0.05 0.00 95 1020.7
20221208055715 35 319 1.0 3.0 0.00 0.05 0.00 95 1020.7
20221208055211 35 319 0.0 4.0 0.00 0.05 0.00 95 1020.7
20221208054720 35 319 0.0 3.0 0.00 0.05 0.00 94 1020.7
20221208054211 35 319 0.0 1.0 0.00 0.05 0.00 94 1020.7
20221208053714 35 319 0.0 3.0 0.00 0.05 0.00 94 1020.8
20221208053214 35 319 0.0 3.0 0.00 0.05 0.00 94 1020.8
20221208052713 35 319 0.0 2.0 0.00 0.05 0.00 94 1020.9
20221208052217 35 319 0.0 2.0 0.00 0.05 0.00 94 1021.0
20221208051714 35 319 0.0 2.0 0.00 0.05 0.00 94 1021.1
20221208051211 35 319 0.0 1.0 0.00 0.05 0.00 94 1021.0
20221208050719 35 295 0.0 1.0 0.00 0.05 0.00 94 1021.1
20221208050211 35 295 0.0 1.0 0.00 0.05 0.00 94 1021.1
20221208045711 35 295 0.0 1.0 0.00 0.05 0.00 94 1020.9
20221208045210 35 295 0.0 1.0 0.00 0.05 0.00 93 1020.8
20221208044711 35 295 1.0 4.0 0.00 0.05 0.00 93 1020.8
20221208044210 35 295 1.0 3.0 0.00 0.05 0.00 93 1021.0
20221208043713 35 295 0.0 1.0 0.00 0.05 0.00 92 1021.0
20221208043216 36 295 0.0 1.0 0.00 0.05 0.00 92 1020.9
20221208042710 36 295 0.0 2.0 0.00 0.05 0.00 92 1020.9
20221208042210 36 295 0.0 2.0 0.00 0.05 0.00 92 1020.9
20221208041713 36 295 0.0 2.0 0.00 0.05 0.00 92 1020.8
20221208041210 37 295 0.0 2.0 0.00 0.05 0.00 92 1020.8
20221208040709 37 295 0.0 2.0 0.00 0.05 0.00 92 1020.7
20221208040215 37 295 0.0 2.0 0.00 0.05 0.00 92 1020.7
20221208035709 37 295 0.0 2.0 0.00 0.05 0.00 92 1020.7
20221208035215 38 295 0.0 3.0 0.00 0.05 0.00 92 1020.6
20221208034715 38 295 0.0 3.0 0.00 0.05 0.00 92 1020.6
20221208034209 38 275 0.0 2.0 0.00 0.04 0.00 92 1020.5
20221208033709 38 275 0.0 5.0 0.00 0.04 0.00 92 1020.6
20221208033215 38 291 2.0 4.0 0.00 0.04 0.00 92 1020.6
20221208032709 39 306 1.0 7.0 0.00 0.04 0.00 92 1020.7
20221208032210 38 312 0.0 9.0 0.00 0.04 0.00 93 1020.8
20221208031712 38 311 2.0 8.0 0.00 0.04 0.00 93 1020.7
20221208031208 38 305 1.0 4.0 0.00 0.04 0.00 93 1020.6
20221208030709 38 305 1.0 2.0 0.00 0.04 0.00 92 1020.4
20221208030211 39 305 0.0 0.0 0.00 0.04 0.00 93 1020.2
20221208025711 39 305 0.0 1.0 0.00 0.04 0.00 93 1020.1
20221208025214 39 305 0.0 3.0 0.00 0.04 0.00 93 1020.0
20221208024708 39 305 2.0 3.0 0.00 0.04 0.00 92 1020.0
20221208024208 39 306 0.0 3.0 0.00 0.04 0.00 92 1019.9
20221208023711 39 306 2.0 4.0 0.00 0.04 0.00 92 1020.0
20221208023211 39 304 0.0 7.0 0.00 0.04 0.00 92 1019.9
20221208022707 39 319 3.0 6.0 0.00 0.04 0.00 92 1020.0
20221208022217 39 299 1.0 7.0 0.00 0.03 0.00 92 1019.9
20221208021707 39 323 4.0 6.0 0.00 0.03 0.00 93 1019.8
20221208021207 39 313 4.0 6.0 0.00 0.03 0.00 93 1019.8
20221208020710 39 304 3.0 5.0 0.00 0.03 0.00 93 1019.7
20221208020207 39 303 0.0 5.0 0.00 0.03 0.00 93 1019.6
20221208015707 39 344 3.0 7.0 0.00 0.03 0.00 94 1019.5
20221208015216 39 317 3.0 8.0 0.00 0.03 0.00 94 1019.5
20221208014707 38 320 2.0 5.0 0.01 0.03 0.00 93 1019.6
20221208014214 38 216 1.0 3.0 0.01 0.03 0.00 92 1019.1
20221208013709 38 216 1.0 3.0 0.02 0.03 0.00 92 1018.9
20221208013206 38 181 3.0 4.0 0.02 0.03 0.00 91 1018.9
20221208012706 39 238 0.0 2.0 0.02 0.03 0.00 91 1018.8
20221208012206 39 254 0.0 2.0 0.02 0.03 0.00 90 1018.8
20221208011706 39 254 1.0 2.0 0.02 0.03 0.00 90 1018.7
20221208011209 40 254 0.0 3.0 0.02 0.03 0.00 90 1018.8
20221208010706 40 254 0.0 1.0 0.02 0.03 0.00 89 1018.6
20221208010209 40 254 0.0 4.0 0.03 0.03 0.00 89 1018.5
20221208005712 40 224 1.0 8.0 0.03 0.03 0.00 89 1018.6
20221208005206 41 265 6.0 10.0 0.02 0.02 0.00 90 1018.8
20221208004706 40 240 2.0 12.0 0.01 0.01 0.00 90 1018.8
20221208004206 40 164 1.0 4.0 0.01 0.01 0.00 90 1018.5
20221208003705 41 325 0.0 0.0 0.00 0.00 0.00 89 1018.1
20221208003208 41 325 0.0 0.0 0.00 0.00 0.00 89 1018.0
20221208002705 41 325 0.0 0.0 0.00 0.00 0.00 88 1018.0
20221208002209 41 325 0.0 1.0 0.00 0.00 0.00 88 1017.9
20221208001711 41 325 0.0 4.0 0.00 0.00 0.00 87 1018.0
20221208001205 42 331 1.0 4.0 0.00 0.00 0.00 85 1018.1
20221208000708 42 313 0.0 3.0 0.00 0.00 0.00 83 1018.1
20221208000205 43 313 0.0 7.0 0.00 0.00 0.00 80 1018.1
20221207235705 44 298 3.0 8.0 0.00 0.00 0.00 74 1018.0
20221207235210 44 294 2.0 2.0 0.00 0.00 0.00 70 1017.5
20221207234707 44 285 0.0 1.0 0.00 0.00 0.00 69 1017.4
20221207234207 45 284 0.0 0.0 0.00 0.00 0.00 69 1017.5
20221207233710 45 284 0.0 0.0 0.00 0.00 0.00 68 1017.2
20221207233207 45 284 0.0 0.0 0.00 0.00 0.00 67 1017.1
20221207232804 45 284 0.0 2.0 0.00 0.00 0.00 66 1017.1
20221207232305 45 284 0.0 1.0 0.00 0.00 0.00 65 1017.0